EW3808 Weather Reports


Display with metric or nautical units.
time (UTC)temp
F
wind
direction
speed
MPH
gust
MPH
rain 1hr
in
rain 24hr
in
rain mn
in
humidity
%
barometer
mb
20260905075534 51 155 0.0 0.0 0.00 0.00 0.00 61 1020.4
20260905074526 51 157 1.0 0.0 0.00 0.00 0.00 62 1020.4
20260905073458 52 166 0.0 5.0 0.00 0.00 0.00 62 1020.2
20260905072440 52 159 1.0 6.0 0.00 0.00 0.00 61 1020.1
20260905071426 52 153 0.0 0.0 0.00 0.00 0.00 62 1019.9
20260905065222 52 148 0.0 0.0 0.00 0.00 0.00 65 1019.9
20260905063053 53 142 0.0 0.0 0.00 0.00 0.00 63 1019.7
20260905062112 53 150 0.0 0.0 0.00 0.00 0.00 63 1019.7
20260905061137 53 150 0.0 0.0 0.00 0.00 0.00 63 1019.5
20260905060132 53 151 0.0 0.0 0.00 0.00 0.00 62 1019.5
20260905055058 53 156 0.0 0.0 0.00 0.00 0.00 62 1019.4
20260905054108 53 147 0.0 0.0 0.00 0.00 0.00 61 1019.5
20260905053047 54 140 0.0 0.0 0.00 0.00 0.00 60 1019.6
20260905052045 55 148 0.0 0.0 0.00 0.00 0.00 58 1019.4
20260905051023 55 145 0.0 4.0 0.00 0.00 0.00 56 1019.5
20260905050002 56 159 0.0 0.0 0.00 0.00 0.00 54 1019.5
20260905043917 58 149 0.0 6.0 0.00 0.00 0.00 52 1019.7
20260905040621 58 161 0.0 0.0 0.00 0.00 0.00 50 1019.7
20260905035617 58 159 0.0 0.0 0.00 0.00 0.00 48 1019.7
20260905033508 59 154 0.0 0.0 0.00 0.00 0.00 49 1019.4
20260905032512 59 150 0.0 2.0 0.00 0.00 0.00 46 1019.4
20260905030404 60 164 0.0 0.0 0.00 0.00 0.00 44 1019.3
20260905025414 61 157 0.0 0.0 0.00 0.00 0.00 41 1019.2
20260905024427 61 151 0.0 0.0 0.00 0.00 0.00 39 1019.0
20260905023412 62 152 0.0 0.0 0.00 0.00 0.00 38 1018.9
20260905022358 63 164 0.0 0.0 0.00 0.00 0.00 37 1018.8
20260905021401 63 160 0.0 0.0 0.00 0.00 0.00 36 1018.7
20260905015231 64 175 0.0 0.0 0.00 0.00 0.00 34 1018.6
20260905014220 65 151 0.0 6.0 0.00 0.00 0.00 34 1018.4
20260905013150 66 161 0.0 0.0 0.00 0.00 0.00 32 1018.3
20260905012214 66 160 1.0 0.0 0.00 0.00 0.00 30 1018.3
20260905005113 68 184 1.0 12.0 0.00 0.00 0.00 28 1018.3
20260905004113 68 165 0.0 0.0 0.00 0.00 0.00 29 1018.3
20260905003138 69 161 0.0 0.0 0.00 0.00 0.00 28 1018.2
20260905002120 70 120 2.0 0.0 0.00 0.00 0.00 27 1018.2
20260905001046 71 130 4.0 14.0 0.00 0.00 0.00 26 1018.2
20260905000106 72 211 3.0 13.0 0.00 0.00 0.00 25 1018.3
20260904235128 73 168 0.0 10.0 0.00 0.00 0.00 24 1018.4
20260904233018 72 165 4.0 24.0 0.00 0.00 0.00 24 1018.4
20260904232030 72 132 5.0 24.0 0.00 0.00 0.00 23 1018.4
20260904231037 73 182 0.0 24.0 0.00 0.00 0.00 22 1018.6
20260904230047 72 207 4.0 15.0 0.00 0.00 0.00 23 1018.4
20260904225048 72 152 4.0 20.0 0.00 0.00 0.00 22 1018.4
20260904224103 72 184 2.0 16.0 0.00 0.00 0.00 24 1018.4
20260904223041 71 150 3.0 20.0 0.00 0.00 0.00 24 1018.7
20260904222047 71 172 6.0 20.0 0.00 0.00 0.00 26 1018.5
20260904221044 71 273 2.0 20.0 0.00 0.00 0.00 23 1018.7
20260904220100 70 92 4.0 19.0 0.00 0.00 0.00 25 1018.6
20260904213914 71 165 6.0 19.0 0.00 0.00 0.00 24 1018.7
20260904212859 71 143 6.0 20.0 0.00 0.00 0.00 23 1018.8
20260904210749 71 157 3.0 26.0 0.00 0.00 0.00 25 1018.7
20260904205802 71 199 3.0 13.0 0.00 0.00 0.00 24 1018.8
20260904203631 71 94 7.0 15.0 0.00 0.00 0.00 25 1019.1
20260904195216 70 172 6.0 17.0 0.00 0.00 0.00 30 1019.2
20260904194241 70 257 3.0 11.0 0.00 0.00 0.00 29 1019.3
20260904193255 69 155 7.0 22.0 0.00 0.00 0.00 29 1019.2
20260904192240 69 225 7.0 22.0 0.00 0.00 0.00 28 1019.5
20260904191242 69 164 5.0 21.0 0.00 0.00 0.00 31 1019.4
20260904190259 68 116 6.0 21.0 0.00 0.00 0.00 30 1019.5
20260904185237 68 140 5.0 20.0 0.00 0.00 0.00 28 1019.5
20260904183146 69 173 3.0 16.0 0.00 0.00 0.00 30 1019.9
20260904182130 68 182 1.0 12.0 0.00 0.00 0.00 31 1020.0
20260904181105 67 252 4.0 19.0 0.00 0.00 0.00 35 1020.0
20260904180119 67 94 5.0 19.0 0.00 0.00 0.00 30 1019.9
20260904175056 67 202 2.0 19.0 0.00 0.00 0.00 33 1020.0
20260904174112 66 176 5.0 19.0 0.00 0.00 0.00 31 1020.2
20260904173130 66 174 4.0 14.0 0.00 0.00 0.00 30 1020.0
20260904171017 66 148 3.0 14.0 0.00 0.00 0.00 36 1020.1
20260904170012 66 200 2.0 14.0 0.00 0.00 0.00 37 1020.1
20260904165027 65 183 3.0 14.0 0.00 0.00 0.00 36 1020.1
20260904164001 65 211 3.0 10.0 0.00 0.00 0.00 39 1020.1
20260904161833 65 155 1.0 10.0 0.00 0.00 0.00 40 1020.2
20260904160854 64 192 0.0 10.0 0.00 0.00 0.00 39 1020.2
20260904155837 63 146 2.0 0.0 0.00 0.00 0.00 41 1020.2
20260904154823 63 159 4.0 20.0 0.00 0.00 0.00 42 1020.2
20260904153756 63 76 3.0 11.0 0.00 0.00 0.00 42 1020.1
20260904152737 62 138 2.0 13.0 0.00 0.00 0.00 44 1020.1
20260904151736 60 138 3.0 13.0 0.00 0.00 0.00 45 1020.1
20260904150710 60 96 2.0 11.0 0.00 0.00 0.00 44 1020.1
20260904145637 58 117 0.0 8.0 0.00 0.00 0.00 47 1020.2
20260904144636 58 119 1.0 0.0 0.00 0.00 0.00 48 1020.3
20260904143632 57 167 0.0 10.0 0.00 0.00 0.00 47 1020.3
20260904141433 54 170 0.0 0.0 0.00 0.00 0.00 48 1020.5
20260904140458 53 160 2.0 11.0 0.00 0.00 0.00 48 1020.4
20260904135437 51 146 1.0 0.0 0.00 0.00 0.00 48 1020.5
20260904134459 51 148 1.0 0.0 0.00 0.00 0.00 46 1020.2
20260904133524 51 156 1.0 7.0 0.00 0.00 0.00 45 1020.1
20260904132508 52 140 2.0 11.0 0.00 0.00 0.00 43 1020.0
20260904131517 52 150 2.0 2.0 0.00 0.00 0.00 42 1019.8
20260904130516 51 162 2.0 8.0 0.00 0.00 0.00 42 1019.6
20260904124315 50 138 2.0 10.0 0.00 0.00 0.00 43 1019.2
20260904123336 49 154 0.0 3.0 0.00 0.00 0.00 44 1019.1
20260904122326 49 142 1.0 0.0 0.00 0.00 0.00 45 1019.1
20260904121324 49 136 2.0 9.0 0.00 0.00 0.00 45 1019.0
20260904120318 49 161 0.0 0.0 0.00 0.00 0.00 47 1019.0
20260904115257 49 159 3.0 9.0 0.00 0.00 0.00 45 1019.0
20260904114242 50 136 2.0 9.0 0.00 0.00 0.00 45 1019.0
20260904113258 50 135 1.0 7.0 0.00 0.00 0.00 45 1019.0
20260904112258 50 142 0.0 7.0 0.00 0.00 0.00 43 1019.0
20260904111315 50 133 0.0 0.0 0.00 0.00 0.00 44 1018.9
20260904110324 49 155 0.0 0.0 0.00 0.00 0.00 45 1019.0
20260904105257 50 138 0.0 0.0 0.00 0.00 0.00 44 1018.9
20260904104318 50 138 1.0 6.0 0.00 0.00 0.00 43 1018.8
20260904103250 50 144 1.0 0.0 0.00 0.00 0.00 43 1018.8
20260904102252 50 141 0.0 0.0 0.00 0.00 0.00 42 1018.8
20260904101259 51 137 0.0 5.0 0.00 0.00 0.00 40 1018.7
20260904100313 52 144 0.0 0.0 0.00 0.00 0.00 38 1018.7
20260904095325 53 146 0.0 5.0 0.00 0.00 0.00 37 1018.7
20260904092043 54 178 1.0 0.0 0.00 0.00 0.00 35 1018.4
20260904084840 51 163 0.0 0.0 0.00 0.00 0.00 41 1018.3
20260904083901 51 160 0.0 0.0 0.00 0.00 0.00 41 1018.3
20260904082838 50 155 0.0 0.0 0.00 0.00 0.00 45 1018.3
20260904081813 49 150 0.0 7.0 0.00 0.00 0.00 46 1018.3